Tallahassee, FL

1:41 PM EDT on May 27, 2018 (GMT -0400)
Tallahassee Regional

Weather History for KTLH - January, 2013

Change the Weather History Date:

Wednesday, January 9, 2013

  Actual Average Record
Temperature  
Mean Temperature 69 °F 51 °F  
Max Temperature 74 °F 63 °F 81 °F (1937)
Min Temperature 63 °F 39 °F 15 °F (1970)
Degree Days  
Heating Degree Days 0    
Month to date heating degree days 77  
Since 1 July heating degree days 602  
Cooling Degree Days 4    
Month to date cooling degree days 4  
Year to date cooling degree days 4  
Growing Degree Days 18 (Base 50)    
Moisture  
Dew Point 63 °F    
Average Humidity 83    
Maximum Humidity 93    
Minimum Humidity 73    
Precipitation  
Precipitation 0.04 in 0.12 in 2.52 in (1932)
Month to date precipitation 0.43 1.11  
Year to date precipitation 0.43 1.11  
Sea Level Pressure  
Sea Level Pressure 30.28 in    
Wind  
Wind Speed 5 mph (ENE)    
Max Wind Speed 12 mph    
Max Gust Speed 14 mph    
Visibility 9 miles    
Events Rain    
T = Trace of Precipitation, MM = Missing Value Source: NWS Daily Summary

Daily Weather History Graph

Daily Weather History Graph

Search for Another Location

Airport or City:

Astronomy

Jan. 09, 2013 Rise Set
Actual Time 7:35 AM EST 5:54 PM EST
Civil Twilight 7:09 AM EST 6:20 PM EST
Nautical Twilight 6:39 AM EST 6:50 PM EST
Astronomical Twilight 6:10 AM EST 7:19 PM EST
Moon 5:13 AM EST (1/9) 3:55 PM EST (1/9)
Length of Visible Light 11h 11m
Length of Day
10h 19m
Waning Crescent, 6% of the Moon is Illuminated
Jan 9
Waning Crescent
Jan 11
New
Jan 18
First Quarter
Jan 26
Full
Feb 3
Last Quarter

Hourly Weather History & Observations

Time (EST) Temp. Dew Point Humidity Pressure Visibility Wind Dir Wind Speed Gust Speed Precip Events Conditions
12:53 AM 64.9 °F 60.1 °F 84% 30.23 in 10.0 mi East 8.1 mph - N/A   Overcast
1:53 AM 64.9 °F 61.0 °F 87% 30.23 in 10.0 mi East 6.9 mph - N/A   Overcast
2:53 AM 66.0 °F 61.0 °F 84% 30.22 in 10.0 mi East 10.4 mph - N/A   Overcast
3:44 AM 66.2 °F 62.6 °F 88% 30.22 in 10.0 mi East 8.1 mph - N/A   Overcast
3:53 AM 66.0 °F 62.1 °F 87% 30.22 in 10.0 mi East 4.6 mph - N/A   Overcast
4:53 AM 64.9 °F 61.0 °F 87% 30.23 in 10.0 mi ENE 5.8 mph - N/A   Overcast
5:53 AM 64.9 °F 61.0 °F 87% 30.24 in 10.0 mi ENE 5.8 mph - N/A   Overcast
6:53 AM 64.0 °F 61.0 °F 90% 30.25 in 10.0 mi ENE 4.6 mph - N/A   Overcast
7:26 AM 64.4 °F 60.8 °F 88% 30.27 in 10.0 mi NE 5.8 mph - N/A   Overcast
7:53 AM 62.6 °F 60.8 °F 94% 30.29 in 8.0 mi NE 5.8 mph - N/A   Overcast
8:32 AM 62.6 °F 60.8 °F 94% 30.31 in 2.0 mi NE 5.8 mph - 0.00 in   Overcast
8:46 AM 62.6 °F 60.8 °F 94% 30.31 in 4.0 mi NE 3.5 mph - 0.00 in   Overcast
8:53 AM 63.0 °F 60.1 °F 90% 30.32 in 4.0 mi NE 3.5 mph - 0.00 in   Overcast
9:53 AM 64.0 °F 60.1 °F 87% 30.33 in 10.0 mi ENE 6.9 mph - N/A   Overcast
10:15 AM 64.4 °F 60.8 °F 88% 30.33 in 10.0 mi East 6.9 mph - N/A   Overcast
10:53 AM 66.2 °F 60.8 °F 83% 30.33 in 10.0 mi East 6.9 mph - N/A   Overcast
11:21 AM 68.0 °F 60.8 °F 78% 30.31 in 10.0 mi ENE 5.8 mph - N/A   Overcast
11:53 AM 69.8 °F 62.6 °F 78% 30.30 in 10.0 mi East 6.9 mph - N/A   Overcast
12:53 PM 72.0 °F 63.0 °F 73% 30.27 in 10.0 mi ENE 5.8 mph - N/A   Overcast
1:53 PM 72.0 °F 64.9 °F 78% 30.26 in 10.0 mi NE 3.5 mph - 0.00 in   Overcast
2:10 PM 71.6 °F 66.2 °F 83% 30.26 in 4.0 mi NE 3.5 mph - 0.03 in Rain Light Rain
2:53 PM 73.0 °F 66.0 °F 79% 30.26 in 10.0 mi NNE 3.5 mph - 0.03 in   Overcast
3:53 PM 73.9 °F 66.9 °F 79% 30.25 in 10.0 mi East 4.6 mph - 0.00 in   Overcast
4:53 PM 73.0 °F 68.0 °F 84% 30.26 in 10.0 mi Calm Calm - 0.00 in   Overcast
5:53 PM 71.1 °F 66.9 °F 87% 30.27 in 9.0 mi Calm Calm - 0.01 in Rain Light Rain
6:45 PM 71.6 °F 66.2 °F 83% 30.27 in 10.0 mi Calm Calm - 0.00 in   Overcast
6:53 PM 70.0 °F 66.9 °F 90% 30.27 in 10.0 mi Calm Calm - 0.00 in   Overcast
7:31 PM 69.8 °F 66.2 °F 88% 30.28 in 9.0 mi East 3.5 mph - N/A   Mostly Cloudy
7:53 PM 68.0 °F 64.9 °F 90% 30.29 in 10.0 mi East 3.5 mph - N/A   Mostly Cloudy
8:53 PM 69.1 °F 64.9 °F 87% 30.31 in 10.0 mi ENE 4.6 mph - N/A   Scattered Clouds
9:53 PM 68.0 °F 64.9 °F 90% 30.31 in 10.0 mi ENE 4.6 mph - N/A   Partly Cloudy
10:53 PM 68.0 °F 64.9 °F 90% 30.32 in 10.0 mi East 6.9 mph - N/A   Overcast
11:46 PM 68.0 °F 64.4 °F 88% 30.32 in 10.0 mi East 5.8 mph - N/A   Mostly Cloudy
11:53 PM 68.0 °F 64.9 °F 90% 30.32 in 10.0 mi East 4.6 mph - N/A   Overcast